Weather History for KCEC - November, 2013

Change the Weather History Date:

Saturday, November 23, 2013

  Actual Average Record
Temperature  
Mean Temperature 61 °F 49 °F  
Max Temperature 75 °F 55 °F 75 °F (2013)
Min Temperature 46 °F 43 °F 32 °F (1978)
Degree Days  
Heating Degree Days 4 16  
Month to date heating degree days 333 336  
Since 1 July heating degree days 1485 1500  
Cooling Degree Days 0 0  
Month to date cooling degree days 0 0  
Year to date cooling degree days 4 0  
Growing Degree Days 11 (Base 50)    
Moisture  
Dew Point 28 °F    
Average Humidity 43    
Maximum Humidity 71    
Minimum Humidity 15    
Precipitation  
Precipitation 0.00 in 0.31 in 2.64 in (2011)
Month to date precipitation 1.97 7.33  
Year to date precipitation 27.06 50.36  
Since 1 July precipitation 7.13 13.43  
Snow  
Snow 0.00 in - - ()
Month to date snowfall 0.0  
Since 1 July snowfall 0.0  
Since 1 September snowfall 0.0  
Snow Depth 0.00 in    
Sea Level Pressure  
Sea Level Pressure 30.05 in    
Wind  
Wind Speed 9 mph (East)    
Max Wind Speed 21 mph    
Max Gust Speed 31 mph    
Visibility 10 miles    
Events      
T = Trace of Precipitation, MM = Missing Value Source: NWS Daily Summary

Daily Weather History Graph

Daily Weather History Graph

Search for Another Location

Airport or City:

Trip Planner

Search our weather history database for the weather conditions in past years. The results will help you decide how hot, cold, wet, or windy it might be!

Date:

Astronomy

Nov. 23, 2013 Rise Set
Actual Time 7:16 AM PST 4:50 PM PST
Civil Twilight 6:45 AM PST 5:20 PM PST
Nautical Twilight 6:11 AM PST 5:55 PM PST
Astronomical Twilight 5:38 AM PST 6:28 PM PST
Moon 10:26 PM PST (11/23) 11:34 AM PST (11/23)
Length of Visible Light 10h 35m
Length of Day
9h 34m
Waning Gibbous, 68% of the Moon is Illuminated
Nov 23
Waning Gibbous
Nov 25
Last Quarter
Dec 2
New
Dec 9
First Quarter
Dec 17
Full

Hourly Weather History & Observations

Time (PST) Temp. Windchill Dew Point Humidity Pressure Visibility Wind Dir Wind Speed Gust Speed Precip Events Conditions
12:56 AM 57.9 °F - 19.0 °F 22% 30.09 in 10.0 mi NE 12.7 mph - N/A   Clear
1:56 AM 57.9 °F - 18.0 °F 21% 30.08 in 10.0 mi NE 17.3 mph 24.2 mph N/A   Clear
2:56 AM 59.0 °F - 17.1 °F 20% 30.07 in 10.0 mi NE 16.1 mph - N/A   Clear
3:56 AM 57.9 °F - 18.0 °F 21% 30.06 in 10.0 mi ENE 13.8 mph - N/A   Clear
4:56 AM 57.9 °F - 17.1 °F 20% 30.07 in 10.0 mi ENE 11.5 mph - N/A   Clear
5:56 AM 60.1 °F - 15.1 °F 17% 30.06 in 10.0 mi ENE 12.7 mph - N/A   Clear
6:56 AM 57.0 °F - 16.0 °F 20% 30.06 in 10.0 mi NE 9.2 mph - N/A   Clear
7:56 AM 59.0 °F - 16.0 °F 19% 30.06 in 10.0 mi ENE 9.2 mph - N/A   Clear
8:56 AM 62.1 °F - 17.1 °F 18% 30.06 in 10.0 mi ENE 11.5 mph - N/A   Clear
9:56 AM 66.0 °F - 18.0 °F 16% 30.05 in 10.0 mi ENE 13.8 mph 24.2 mph N/A   Clear
10:56 AM 69.1 °F - 19.0 °F 15% 30.05 in 10.0 mi East 11.5 mph 21.9 mph N/A   Clear
11:56 AM 72.0 °F - 21.0 °F 15% 30.03 in 10.0 mi East 8.1 mph - N/A   Clear
12:56 PM 66.9 °F - 33.1 °F 28% 30.01 in 10.0 mi Variable 4.6 mph - N/A   Clear
1:56 PM 62.1 °F - 37.9 °F 41% 29.99 in 10.0 mi South 10.4 mph - N/A   Clear
2:56 PM 61.0 °F - 42.1 °F 50% 29.98 in 10.0 mi South 6.9 mph - N/A   Clear
3:56 PM 57.9 °F - 45.0 °F 62% 29.99 in 10.0 mi South 3.5 mph - N/A   Clear
4:56 PM 55.0 °F - 39.0 °F 55% 29.99 in 10.0 mi SE 4.6 mph - N/A   Clear
5:56 PM 57.9 °F - 32.0 °F 37% 30.00 in 10.0 mi East 5.8 mph - N/A   Clear
6:56 PM 53.1 °F - 42.1 °F 66% 30.03 in 10.0 mi SE 9.2 mph - N/A   Clear
7:56 PM 52.0 °F - 37.0 °F 57% 30.04 in 10.0 mi SE 8.1 mph - N/A   Clear
8:56 PM 50.0 °F - 35.1 °F 57% 30.06 in 10.0 mi SE 6.9 mph - N/A   Clear
9:56 PM 51.1 °F - 34.0 °F 52% 30.08 in 10.0 mi South 6.9 mph - N/A   Clear
10:56 PM 51.1 °F - 42.1 °F 71% 30.09 in 10.0 mi SSE 8.1 mph - N/A   Clear
11:56 PM 46.0 °F 44.8 °F 36.0 °F 68% 30.09 in 10.0 mi East 3.5 mph - N/A   Clear